| time (UTC) | temp F | wind direction | speed knots | gust knots | rain 1hr in | rain 24hr in | rain mn in | humidity % | barometer mb |
| 20260901005738 | 75 | 338 | 1.7 | 4.3 | 0.00 | 0.00 | 0.00 | 53 | 1009.8 |
| 20260901005227 | 75 | 275 | 0.0 | 2.6 | 0.00 | 0.00 | 0.00 | 53 | 1009.8 |
| 20260901004732 | 75 | 306 | 0.9 | 4.3 | 0.00 | 0.00 | 0.00 | 53 | 1009.8 |
| 20260901004239 | 75 | 30 | 1.7 | 6.1 | 0.00 | 0.00 | 0.00 | 53 | 1009.7 |
| 20260901003806 | 75 | 342 | 1.7 | 5.2 | 0.00 | 0.00 | 0.00 | 52 | 1009.8 |
| 20260901003734 | 75 | 342 | 1.7 | 5.2 | 0.00 | 0.00 | 0.00 | 52 | 1009.8 |
| 20260901003221 | 75 | 331 | 2.6 | 6.1 | 0.00 | 0.00 | 0.00 | 52 | 1009.9 |
| 20260901002728 | 76 | 285 | 2.6 | 6.1 | 0.00 | 0.00 | 0.00 | 51 | 1009.9 |
| 20260901002256 | 76 | 244 | 1.7 | 7.0 | 0.00 | 0.00 | 0.00 | 51 | 1010.0 |
| 20260901002224 | 76 | 244 | 1.7 | 7.0 | 0.00 | 0.00 | 0.00 | 51 | 1010.0 |
| 20260901001810 | 76 | 342 | 3.5 | 7.0 | 0.00 | 0.00 | 0.00 | 50 | 1010.0 |
| 20260901001225 | 76 | 326 | 1.7 | 7.0 | 0.00 | 0.00 | 0.00 | 51 | 1010.1 |
| 20260901000732 | 76 | 292 | 1.7 | 7.0 | 0.00 | 0.00 | 0.00 | 50 | 1010.1 |
| 20260901000241 | 76 | 284 | 3.5 | 7.0 | 0.00 | 0.00 | 0.00 | 50 | 1010.2 |
| 20260831235726 | 77 | 296 | 2.6 | 6.1 | 0.00 | 0.00 | 0.00 | 49 | 1010.3 |
| 20260831235238 | 77 | 247 | 1.7 | 7.0 | 0.00 | 0.00 | 0.00 | 50 | 1010.3 |
| 20260831234724 | 77 | 324 | 2.6 | 7.0 | 0.00 | 0.00 | 0.00 | 49 | 1010.3 |
| 20260831234231 | 77 | 333 | 2.6 | 4.3 | 0.00 | 0.00 | 0.00 | 49 | 1010.5 |
| 20260831233738 | 77 | 321 | 2.6 | 4.3 | 0.00 | 0.00 | 0.00 | 49 | 1010.5 |
| 20260831233225 | 77 | 28 | 1.7 | 4.3 | 0.00 | 0.00 | 0.00 | 50 | 1010.5 |
| 20260831232732 | 77 | 15 | 1.7 | 6.1 | 0.00 | 0.00 | 0.00 | 50 | 1010.5 |
| 20260831232240 | 77 | 45 | 0.9 | 7.8 | 0.00 | 0.00 | 0.00 | 51 | 1010.5 |
| 20260831231726 | 77 | 9 | 2.6 | 6.1 | 0.00 | 0.00 | 0.00 | 50 | 1010.5 |
| 20260831231233 | 77 | 28 | 1.7 | 4.3 | 0.00 | 0.00 | 0.00 | 51 | 1010.5 |
| 20260831230724 | 76 | 343 | 1.7 | 7.0 | 0.00 | 0.00 | 0.00 | 51 | 1010.6 |
| 20260831230231 | 76 | 339 | 2.6 | 7.0 | 0.00 | 0.00 | 0.00 | 51 | 1010.7 |
| 20260831225758 | 77 | 277 | 1.7 | 7.0 | 0.00 | 0.00 | 0.00 | 50 | 1010.7 |
| 20260831225726 | 77 | 277 | 1.7 | 7.0 | 0.00 | 0.00 | 0.00 | 50 | 1010.7 |
| 20260831225255 | 77 | 297 | 2.6 | 7.0 | 0.00 | 0.00 | 0.00 | 49 | 1010.7 |
| 20260831224729 | 77 | 52 | 1.7 | 8.7 | 0.00 | 0.00 | 0.00 | 49 | 1010.7 |
| 20260831224236 | 78 | 325 | 2.6 | 8.7 | 0.00 | 0.00 | 0.00 | 49 | 1010.8 |
| 20260831223723 | 77 | 292 | 0.9 | 3.5 | 0.00 | 0.00 | 0.00 | 49 | 1010.9 |
| 20260831223230 | 77 | 340 | 0.9 | 6.1 | 0.00 | 0.00 | 0.00 | 51 | 1010.9 |
| 20260831222737 | 76 | 355 | 3.5 | 8.7 | 0.00 | 0.00 | 0.00 | 50 | 1010.9 |
| 20260831222225 | 77 | 9 | 1.7 | 5.2 | 0.00 | 0.00 | 0.00 | 50 | 1011.0 |
| 20260831221731 | 77 | 340 | 0.9 | 4.3 | 0.00 | 0.00 | 0.00 | 50 | 1011.1 |
| 20260831221258 | 76 | 33 | 0.9 | 6.1 | 0.00 | 0.00 | 0.00 | 51 | 1011.1 |
| 20260831221226 | 76 | 33 | 0.9 | 6.1 | 0.00 | 0.00 | 0.00 | 51 | 1011.1 |
| 20260831220753 | 76 | 264 | 2.6 | 8.7 | 0.00 | 0.00 | 0.00 | 51 | 1011.2 |
| 20260831220310 | 76 | 327 | 3.5 | 8.7 | 0.00 | 0.00 | 0.00 | 51 | 1011.3 |
| 20260831220238 | 76 | 327 | 3.5 | 8.7 | 0.00 | 0.00 | 0.00 | 51 | 1011.3 |
| 20260831215805 | 76 | 360 | 1.7 | 9.6 | 0.00 | 0.00 | 0.00 | 52 | 1011.4 |
| 20260831215733 | 76 | 360 | 1.7 | 9.6 | 0.00 | 0.00 | 0.00 | 52 | 1011.4 |
| 20260831215221 | 75 | 47 | 1.7 | 9.6 | 0.00 | 0.00 | 0.00 | 52 | 1011.3 |
| 20260831214728 | 75 | 304 | 1.7 | 4.3 | 0.00 | 0.00 | 0.00 | 52 | 1011.3 |
| 20260831214239 | 75 | 306 | 1.7 | 9.6 | 0.00 | 0.00 | 0.00 | 53 | 1011.5 |
| 20260831213726 | 75 | 339 | 3.5 | 9.6 | 0.00 | 0.00 | 0.00 | 52 | 1011.6 |
| 20260831213253 | 75 | 89 | 1.7 | 7.8 | 0.00 | 0.00 | 0.00 | 52 | 1011.6 |
| 20260831212809 | 75 | 290 | 2.6 | 7.0 | 0.00 | 0.00 | 0.00 | 52 | 1011.8 |
| 20260831212225 | 75 | 360 | 1.7 | 5.2 | 0.00 | 0.00 | 0.00 | 52 | 1011.9 |
| 20260831211811 | 75 | 302 | 1.7 | 7.0 | 0.00 | 0.00 | 0.00 | 53 | 1012.0 |
| 20260831211226 | 74 | 318 | 2.6 | 7.0 | 0.00 | 0.00 | 0.00 | 54 | 1011.9 |
| 20260831210733 | 74 | 331 | 2.6 | 6.1 | 0.00 | 0.00 | 0.00 | 54 | 1012.0 |
| 20260831210220 | 74 | 41 | 3.5 | 7.8 | 0.00 | 0.00 | 0.00 | 55 | 1012.1 |
| 20260831205727 | 74 | 215 | 1.7 | 7.8 | 0.00 | 0.00 | 0.00 | 55 | 1012.1 |
| 20260831205235 | 73 | 270 | 3.5 | 7.0 | 0.00 | 0.00 | 0.00 | 55 | 1012.1 |
| 20260831204721 | 73 | 325 | 2.6 | 8.7 | 0.00 | 0.00 | 0.00 | 55 | 1012.1 |
| 20260831204228 | 73 | 24 | 2.6 | 8.7 | 0.00 | 0.00 | 0.00 | 55 | 1012.2 |
| 20260831203739 | 74 | 40 | 1.7 | 7.0 | 0.00 | 0.00 | 0.00 | 56 | 1012.2 |
| 20260831203226 | 73 | 355 | 2.6 | 7.0 | 0.00 | 0.00 | 0.00 | 56 | 1012.3 |
| 20260831202754 | 73 | 31 | 1.7 | 7.8 | 0.00 | 0.00 | 0.00 | 57 | 1012.3 |
| 20260831202230 | 73 | 339 | 4.3 | 7.8 | 0.00 | 0.00 | 0.00 | 57 | 1012.2 |
| 20260831201736 | 72 | 281 | 2.6 | 7.0 | 0.00 | 0.00 | 0.00 | 57 | 1012.4 |
| 20260831201303 | 72 | 26 | 1.7 | 8.7 | 0.00 | 0.00 | 0.00 | 57 | 1012.5 |
| 20260831200738 | 72 | 300 | 2.6 | 8.7 | 0.00 | 0.00 | 0.00 | 57 | 1012.6 |
| 20260831200225 | 72 | 303 | 1.7 | 4.3 | 0.00 | 0.00 | 0.00 | 58 | 1012.7 |
| 20260831195732 | 72 | 323 | 2.6 | 8.7 | 0.00 | 0.00 | 0.00 | 57 | 1012.7 |
| 20260831195239 | 72 | 307 | 2.6 | 8.7 | 0.00 | 0.00 | 0.00 | 58 | 1012.8 |
| 20260831194725 | 71 | 23 | 3.5 | 8.7 | 0.00 | 0.00 | 0.00 | 57 | 1012.8 |
| 20260831194232 | 71 | 246 | 1.7 | 6.1 | 0.00 | 0.00 | 0.00 | 58 | 1012.8 |
| 20260831193723 | 71 | 229 | 1.7 | 7.0 | 0.00 | 0.00 | 0.00 | 58 | 1012.8 |
| 20260831193230 | 71 | 240 | 2.6 | 7.0 | 0.00 | 0.00 | 0.00 | 57 | 1012.8 |
| 20260831192732 | 72 | 265 | 2.6 | 7.0 | 0.00 | 0.00 | 0.00 | 57 | 1012.9 |
| 20260831192240 | 71 | 76 | 1.7 | 7.0 | 0.00 | 0.00 | 0.00 | 59 | 1013.0 |
| 20260831191726 | 70 | 250 | 2.6 | 7.0 | 0.00 | 0.00 | 0.00 | 58 | 1013.0 |
| 20260831191233 | 70 | 257 | 2.6 | 7.0 | 0.00 | 0.00 | 0.00 | 60 | 1013.1 |
| 20260831190720 | 70 | 315 | 0.9 | 3.5 | 0.00 | 0.00 | 0.00 | 60 | 1013.2 |
| 20260831190227 | 69 | 333 | 1.7 | 7.8 | 0.00 | 0.00 | 0.00 | 61 | 1013.4 |
| 20260831185734 | 69 | 9 | 0.9 | 7.8 | 0.00 | 0.00 | 0.00 | 61 | 1013.5 |
| 20260831185226 | 69 | 303 | 2.6 | 7.0 | 0.00 | 0.00 | 0.00 | 59 | 1013.4 |
| 20260831184731 | 70 | 311 | 2.6 | 7.0 | 0.00 | 0.00 | 0.00 | 59 | 1013.5 |
| 20260831184259 | 69 | 306 | 1.7 | 6.1 | 0.00 | 0.00 | 0.00 | 61 | 1013.4 |
| 20260831183734 | 69 | 58 | 0.9 | 4.3 | 0.00 | 0.00 | 0.00 | 62 | 1013.5 |
| 20260831183221 | 68 | 9 | 2.6 | 7.0 | 0.00 | 0.00 | 0.00 | 63 | 1013.6 |
| 20260831182809 | 68 | 326 | 2.6 | 6.1 | 0.00 | 0.00 | 0.00 | 63 | 1013.7 |
| 20260831182245 | 68 | 324 | 2.6 | 7.0 | 0.00 | 0.00 | 0.00 | 63 | 1013.9 |
| 20260831181726 | 67 | 21 | 3.5 | 7.0 | 0.00 | 0.00 | 0.00 | 64 | 1013.9 |
| 20260831181233 | 68 | 327 | 2.6 | 5.2 | 0.00 | 0.00 | 0.00 | 63 | 1013.8 |
| 20260831180720 | 67 | 298 | 1.7 | 7.8 | 0.00 | 0.00 | 0.00 | 64 | 1013.8 |
| 20260831180307 | 67 | 281 | 3.5 | 7.8 | 0.00 | 0.00 | 0.00 | 64 | 1014.1 |
| 20260831175722 | 67 | 348 | 0.9 | 6.1 | 0.00 | 0.00 | 0.00 | 66 | 1014.0 |
| 20260831175310 | 66 | 305 | 2.6 | 7.8 | 0.00 | 0.00 | 0.00 | 66 | 1014.1 |
| 20260831174724 | 66 | 313 | 2.6 | 7.8 | 0.00 | 0.00 | 0.00 | 66 | 1014.1 |
| 20260831174231 | 66 | 296 | 0.9 | 8.7 | 0.00 | 0.00 | 0.00 | 68 | 1013.9 |
| 20260831173722 | 66 | 322 | 1.7 | 8.7 | 0.00 | 0.00 | 0.00 | 67 | 1014.0 |
| 20260831173229 | 66 | 252 | 0.9 | 2.6 | 0.00 | 0.00 | 0.00 | 68 | 1014.1 |
| 20260831172736 | 65 | 30 | 1.7 | 4.3 | 0.00 | 0.00 | 0.00 | 69 | 1014.1 |
| 20260831172224 | 65 | 288 | 1.7 | 4.3 | 0.00 | 0.00 | 0.00 | 69 | 1014.1 |
| 20260831171730 | 65 | 23 | 0.9 | 3.5 | 0.00 | 0.00 | 0.00 | 70 | 1014.2 |
| 20260831171237 | 65 | 306 | 1.7 | 3.5 | 0.00 | 0.00 | 0.00 | 68 | 1014.3 |
| 20260831170804 | 65 | 68 | 0.9 | 2.6 | 0.00 | 0.00 | 0.00 | 68 | 1014.4 |
| 20260831170732 | 65 | 68 | 0.9 | 2.6 | 0.00 | 0.00 | 0.00 | 68 | 1014.4 |
| 20260831170239 | 65 | 329 | 0.9 | 2.6 | 0.00 | 0.00 | 0.00 | 67 | 1014.3 |
| 20260831165806 | 65 | 113 | 0.9 | 2.6 | 0.00 | 0.00 | 0.00 | 69 | 1014.4 |
| 20260831165735 | 65 | 113 | 0.9 | 2.6 | 0.00 | 0.00 | 0.00 | 69 | 1014.4 |
| 20260831165258 | 64 | 80 | 0.0 | 2.6 | 0.00 | 0.00 | 0.00 | 69 | 1014.2 |
| 20260831164732 | 63 | 112 | 0.9 | 3.5 | 0.00 | 0.00 | 0.00 | 70 | 1014.3 |
| 20260831164239 | 63 | 46 | 1.7 | 3.5 | 0.00 | 0.00 | 0.00 | 70 | 1014.5 |
| 20260831163726 | 63 | 33 | 0.9 | 3.5 | 0.00 | 0.00 | 0.00 | 71 | 1014.5 |
| 20260831163253 | 63 | 111 | 0.9 | 2.6 | 0.00 | 0.00 | 0.00 | 71 | 1014.5 |
| 20260831162732 | 63 | 34 | 1.7 | 2.6 | 0.00 | 0.00 | 0.00 | 71 | 1014.5 |
| 20260831162235 | 62 | 342 | 0.9 | 2.6 | 0.00 | 0.00 | 0.00 | 72 | 1014.7 |
| 20260831161721 | 62 | 42 | 0.0 | 2.6 | 0.00 | 0.00 | 0.00 | 75 | 1014.7 |
| 20260831161228 | 61 | 51 | 0.0 | 2.6 | 0.00 | 0.00 | 0.00 | 75 | 1014.9 |
| 20260831160736 | 61 | 63 | 0.9 | 2.6 | 0.00 | 0.00 | 0.00 | 76 | 1014.9 |
| 20260831160222 | 60 | 80 | 0.9 | 2.6 | 0.00 | 0.00 | 0.00 | 77 | 1014.9 |
| 20260831155729 | 60 | 35 | 0.9 | 2.6 | 0.00 | 0.00 | 0.00 | 76 | 1014.9 |
| 20260831155237 | 60 | 45 | 0.9 | 2.6 | 0.00 | 0.00 | 0.00 | 77 | 1014.9 |
| 20260831154723 | 59 | 81 | 0.9 | 3.5 | 0.00 | 0.00 | 0.00 | 78 | 1014.8 |
| 20260831154311 | 59 | 323 | 0.9 | 2.6 | 0.00 | 0.00 | 0.00 | 77 | 1014.9 |
| 20260831153726 | 59 | 59 | 0.9 | 1.7 | 0.00 | 0.00 | 0.00 | 78 | 1014.8 |
| 20260831153237 | 58 | 74 | 0.0 | 2.6 | 0.00 | 0.00 | 0.00 | 82 | 1014.9 |
| 20260831152724 | 58 | 89 | 0.9 | 1.7 | 0.00 | 0.00 | 0.00 | 82 | 1015.1 |
| 20260831152232 | 57 | 59 | 0.0 | 0.9 | 0.00 | 0.00 | 0.00 | 84 | 1015.0 |
| 20260831151738 | 57 | 34 | 0.0 | 0.0 | 0.00 | 0.00 | 0.00 | 87 | 1015.0 |
| 20260831151225 | 55 | 34 | 0.0 | 0.0 | 0.00 | 0.00 | 0.00 | 89 | 1015.1 |
| 20260831150732 | 54 | 34 | 0.0 | 0.0 | 0.00 | 0.00 | 0.00 | 91 | 1015.1 |
| 20260831150239 | 53 | 34 | 0.0 | 0.0 | 0.00 | 0.00 | 0.00 | 90 | 1015.1 |
| 20260831145726 | 53 | 34 | 0.0 | 0.0 | 0.00 | 0.00 | 0.00 | 90 | 1015.1 |
| 20260831145234 | 53 | 34 | 0.0 | 0.0 | 0.00 | 0.00 | 0.00 | 91 | 1015.0 |
| 20260831144724 | 52 | 34 | 0.0 | 0.0 | 0.00 | 0.00 | 0.00 | 92 | 1014.9 |
| 20260831144231 | 51 | 34 | 0.0 | 0.0 | 0.00 | 0.00 | 0.00 | 93 | 1014.9 |
| 20260831143738 | 51 | 34 | 0.0 | 0.0 | 0.00 | 0.00 | 0.00 | 93 | 1014.9 |
| 20260831143305 | 50 | 34 | 0.0 | 0.0 | 0.00 | 0.00 | 0.00 | 93 | 1014.9 |
| 20260831143233 | 50 | 34 | 0.0 | 0.0 | 0.00 | 0.00 | 0.00 | 93 | 1014.9 |
| 20260831142721 | 50 | 34 | 0.0 | 0.0 | 0.00 | 0.00 | 0.00 | 93 | 1015.0 |
| 20260831142309 | 50 | 34 | 0.0 | 0.0 | 0.00 | 0.00 | 0.00 | 93 | 1015.0 |
| 20260831141722 | 50 | 349 | 0.0 | 0.0 | 0.00 | 0.00 | 0.00 | 93 | 1014.9 |
| 20260831141229 | 50 | 349 | 0.0 | 0.0 | 0.00 | 0.00 | 0.00 | 93 | 1015.1 |
| 20260831140736 | 50 | 349 | 0.0 | 0.0 | 0.00 | 0.00 | 0.00 | 94 | 1015.1 |
| 20260831140223 | 49 | 349 | 0.0 | 0.0 | 0.00 | 0.00 | 0.00 | 94 | 1015.0 |
| 20260831135730 | 49 | 349 | 0.0 | 0.0 | 0.00 | 0.00 | 0.00 | 93 | 1015.1 |
| 20260831135238 | 49 | 349 | 0.0 | 0.0 | 0.00 | 0.00 | 0.00 | 93 | 1015.0 |
| 20260831134728 | 49 | 349 | 0.0 | 0.0 | 0.00 | 0.00 | 0.00 | 93 | 1015.0 |
| 20260831134234 | 49 | 349 | 0.0 | 0.0 | 0.00 | 0.00 | 0.00 | 93 | 1015.0 |
| 20260831133722 | 49 | 349 | 0.0 | 0.0 | 0.00 | 0.00 | 0.00 | 92 | 1014.9 |
| 20260831133228 | 49 | 349 | 0.0 | 0.0 | 0.00 | 0.00 | 0.00 | 92 | 1014.9 |
| 20260831132735 | 49 | 349 | 0.0 | 0.0 | 0.00 | 0.00 | 0.00 | 92 | 1014.9 |
| 20260831132306 | 49 | 349 | 0.0 | 0.0 | 0.00 | 0.00 | 0.00 | 92 | 1015.0 |
| 20260831131738 | 49 | 349 | 0.0 | 0.0 | 0.00 | 0.00 | 0.00 | 92 | 1014.9 |
| 20260831131225 | 49 | 349 | 0.0 | 0.0 | 0.00 | 0.00 | 0.00 | 92 | 1015.0 |
| 20260831130752 | 50 | 349 | 0.0 | 0.0 | 0.00 | 0.00 | 0.00 | 92 | 1015.0 |
| 20260831130307 | 50 | 349 | 0.0 | 0.0 | 0.00 | 0.00 | 0.00 | 92 | 1015.0 |
| 20260831130235 | 50 | 349 | 0.0 | 0.0 | 0.00 | 0.00 | 0.00 | 92 | 1015.0 |
| 20260831125722 | 50 | 349 | 0.0 | 0.0 | 0.00 | 0.00 | 0.00 | 93 | 1015.0 |
| 20260831125230 | 50 | 349 | 0.0 | 0.0 | 0.00 | 0.00 | 0.00 | 93 | 1015.0 |
| 20260831124736 | 50 | 349 | 0.0 | 0.0 | 0.00 | 0.00 | 0.00 | 93 | 1015.1 |
| 20260831124304 | 50 | 350 | 0.0 | 0.0 | 0.00 | 0.00 | 0.00 | 93 | 1015.0 |
| 20260831123800 | 50 | 349 | 0.0 | 0.0 | 0.00 | 0.00 | 0.00 | 93 | 1015.1 |
| 20260831123255 | 50 | 349 | 0.0 | 0.0 | 0.00 | 0.00 | 0.00 | 92 | 1015.0 |
| 20260831123223 | 50 | 349 | 0.0 | 0.0 | 0.00 | 0.00 | 0.00 | 92 | 1015.0 |
| 20260831122730 | 50 | 349 | 0.0 | 0.0 | 0.00 | 0.00 | 0.00 | 92 | 1015.1 |
| 20260831122222 | 50 | 349 | 0.0 | 0.0 | 0.00 | 0.00 | 0.00 | 92 | 1015.2 |
| 20260831121728 | 50 | 349 | 0.0 | 0.0 | 0.00 | 0.00 | 0.00 | 92 | 1015.1 |
| 20260831121235 | 50 | 349 | 0.0 | 0.0 | 0.00 | 0.00 | 0.00 | 92 | 1015.2 |
| 20260831120722 | 50 | 349 | 0.0 | 0.0 | 0.00 | 0.00 | 0.00 | 92 | 1015.3 |
| 20260831120309 | 50 | 349 | 0.0 | 0.0 | 0.00 | 0.00 | 0.00 | 92 | 1015.4 |
| 20260831120237 | 50 | 349 | 0.0 | 0.0 | 0.00 | 0.00 | 0.00 | 92 | 1015.4 |
| 20260831115725 | 50 | 349 | 0.0 | 0.0 | 0.00 | 0.00 | 0.00 | 92 | 1015.4 |
| 20260831115232 | 50 | 349 | 0.0 | 0.0 | 0.00 | 0.00 | 0.00 | 91 | 1015.5 |
| 20260831114738 | 50 | 349 | 0.0 | 0.0 | 0.00 | 0.00 | 0.00 | 92 | 1015.5 |
| 20260831114225 | 50 | 349 | 0.0 | 0.0 | 0.00 | 0.00 | 0.00 | 92 | 1015.5 |
| 20260831113732 | 50 | 349 | 0.0 | 0.0 | 0.00 | 0.00 | 0.00 | 92 | 1015.6 |
| 20260831113259 | 50 | 349 | 0.0 | 0.0 | 0.00 | 0.00 | 0.00 | 92 | 1015.6 |
| 20260831112735 | 50 | 349 | 0.0 | 0.0 | 0.00 | 0.00 | 0.00 | 91 | 1015.5 |
| 20260831112226 | 51 | 349 | 0.0 | 0.0 | 0.00 | 0.00 | 0.00 | 91 | 1015.8 |
| 20260831111752 | 51 | 349 | 0.0 | 0.0 | 0.00 | 0.00 | 0.00 | 92 | 1015.7 |
| 20260831111720 | 51 | 349 | 0.0 | 0.0 | 0.00 | 0.00 | 0.00 | 92 | 1015.7 |
| 20260831111227 | 51 | 349 | 0.0 | 0.0 | 0.00 | 0.00 | 0.00 | 92 | 1015.9 |
| 20260831110734 | 51 | 349 | 0.0 | 0.0 | 0.00 | 0.00 | 0.00 | 92 | 1015.8 |
| 20260831110221 | 51 | 349 | 0.0 | 0.0 | 0.00 | 0.00 | 0.00 | 92 | 1015.9 |
| 20260831105729 | 51 | 349 | 0.0 | 0.0 | 0.00 | 0.00 | 0.00 | 91 | 1015.9 |
| 20260831105231 | 51 | 349 | 0.0 | 0.0 | 0.00 | 0.00 | 0.00 | 91 | 1016.0 |
| 20260831104737 | 51 | 349 | 0.0 | 0.0 | 0.00 | 0.00 | 0.00 | 91 | 1015.9 |
| 20260831104224 | 51 | 349 | 0.0 | 0.0 | 0.00 | 0.00 | 0.00 | 91 | 1016.0 |
| 20260831103731 | 51 | 349 | 0.0 | 0.0 | 0.00 | 0.00 | 0.00 | 91 | 1016.1 |
| 20260831103222 | 51 | 349 | 0.0 | 0.0 | 0.00 | 0.00 | 0.00 | 91 | 1016.1 |
| 20260831102806 | 51 | 349 | 0.0 | 0.0 | 0.00 | 0.00 | 0.00 | 91 | 1016.2 |
| 20260831102227 | 51 | 349 | 0.0 | 0.0 | 0.00 | 0.00 | 0.00 | 92 | 1016.2 |
| 20260831101733 | 51 | 350 | 0.0 | 0.0 | 0.00 | 0.00 | 0.00 | 91 | 1016.1 |
| 20260831101220 | 51 | 349 | 0.0 | 0.0 | 0.00 | 0.00 | 0.00 | 91 | 1016.1 |
| 20260831100727 | 51 | 349 | 0.0 | 0.0 | 0.00 | 0.00 | 0.00 | 91 | 1016.1 |
| 20260831100234 | 51 | 349 | 0.0 | 0.0 | 0.00 | 0.00 | 0.00 | 91 | 1016.3 |
| 20260831095801 | 51 | 349 | 0.0 | 0.0 | 0.00 | 0.00 | 0.00 | 90 | 1016.2 |
| 20260831095729 | 51 | 349 | 0.0 | 0.0 | 0.00 | 0.00 | 0.00 | 90 | 1016.2 |
| 20260831095237 | 51 | 349 | 0.0 | 0.0 | 0.00 | 0.00 | 0.00 | 90 | 1016.2 |
| 20260831094803 | 51 | 349 | 0.0 | 0.0 | 0.00 | 0.00 | 0.00 | 90 | 1016.3 |
| 20260831094731 | 51 | 349 | 0.0 | 0.0 | 0.00 | 0.00 | 0.00 | 90 | 1016.3 |
| 20260831094238 | 51 | 349 | 0.0 | 0.0 | 0.00 | 0.00 | 0.00 | 90 | 1016.4 |
| 20260831093725 | 52 | 349 | 0.0 | 0.0 | 0.00 | 0.00 | 0.00 | 89 | 1016.4 |
| 20260831093253 | 52 | 349 | 0.0 | 0.0 | 0.00 | 0.00 | 0.00 | 89 | 1016.4 |
| 20260831092728 | 52 | 349 | 0.0 | 0.0 | 0.00 | 0.00 | 0.00 | 89 | 1016.5 |
| 20260831092256 | 52 | 349 | 0.0 | 0.0 | 0.00 | 0.00 | 0.00 | 89 | 1016.6 |
| 20260831092224 | 52 | 349 | 0.0 | 0.0 | 0.00 | 0.00 | 0.00 | 89 | 1016.6 |
| 20260831091730 | 52 | 349 | 0.0 | 0.0 | 0.00 | 0.00 | 0.00 | 89 | 1016.8 |
| 20260831091235 | 52 | 349 | 0.0 | 0.0 | 0.00 | 0.00 | 0.00 | 88 | 1016.6 |
| 20260831090722 | 52 | 349 | 0.0 | 0.0 | 0.00 | 0.00 | 0.00 | 88 | 1016.7 |
| 20260831090229 | 52 | 349 | 0.0 | 0.0 | 0.00 | 0.00 | 0.00 | 88 | 1016.7 |
| 20260831085736 | 53 | 349 | 0.0 | 0.0 | 0.00 | 0.00 | 0.00 | 88 | 1016.8 |
| 20260831085224 | 53 | 350 | 0.0 | 0.0 | 0.00 | 0.00 | 0.00 | 89 | 1016.7 |
| 20260831084730 | 53 | 349 | 0.0 | 0.0 | 0.00 | 0.00 | 0.00 | 88 | 1016.8 |
| 20260831084252 | 53 | 349 | 0.0 | 0.0 | 0.00 | 0.00 | 0.00 | 88 | 1016.8 |
| 20260831084220 | 53 | 349 | 0.0 | 0.0 | 0.00 | 0.00 | 0.00 | 88 | 1016.8 |
| 20260831083728 | 53 | 349 | 0.0 | 0.0 | 0.00 | 0.00 | 0.00 | 89 | 1016.9 |
| 20260831083255 | 53 | 349 | 0.0 | 0.0 | 0.00 | 0.00 | 0.00 | 88 | 1016.8 |
| 20260831082730 | 53 | 349 | 0.0 | 0.0 | 0.00 | 0.00 | 0.00 | 88 | 1017.0 |
| 20260831082257 | 53 | 349 | 0.0 | 0.0 | 0.00 | 0.00 | 0.00 | 87 | 1016.9 |
| 20260831082225 | 53 | 349 | 0.0 | 0.0 | 0.00 | 0.00 | 0.00 | 87 | 1016.9 |
| 20260831081731 | 53 | 349 | 0.0 | 0.0 | 0.00 | 0.00 | 0.00 | 87 | 1017.0 |
| 20260831081258 | 53 | 349 | 0.0 | 0.0 | 0.00 | 0.00 | 0.00 | 87 | 1017.0 |
| 20260831080733 | 53 | 349 | 0.0 | 0.0 | 0.00 | 0.00 | 0.00 | 87 | 1017.1 |
| 20260831080240 | 54 | 349 | 0.0 | 0.0 | 0.00 | 0.00 | 0.00 | 86 | 1017.1 |
| 20260831075725 | 54 | 349 | 0.0 | 0.0 | 0.00 | 0.00 | 0.00 | 86 | 1017.3 |
| 20260831075233 | 54 | 349 | 0.0 | 0.0 | 0.00 | 0.00 | 0.00 | 86 | 1017.2 |
| 20260831074739 | 54 | 349 | 0.0 | 0.0 | 0.00 | 0.00 | 0.00 | 86 | 1017.3 |
| 20260831074226 | 54 | 349 | 0.0 | 0.0 | 0.00 | 0.00 | 0.00 | 86 | 1017.4 |
| 20260831073753 | 54 | 349 | 0.0 | 0.0 | 0.00 | 0.00 | 0.00 | 85 | 1017.4 |
| 20260831073721 | 54 | 349 | 0.0 | 0.0 | 0.00 | 0.00 | 0.00 | 85 | 1017.4 |
| 20260831073228 | 55 | 349 | 0.0 | 0.0 | 0.00 | 0.00 | 0.00 | 85 | 1017.4 |
| 20260831072735 | 55 | 349 | 0.0 | 0.0 | 0.00 | 0.00 | 0.00 | 85 | 1017.3 |
| 20260831072306 | 55 | 326 | 0.0 | 0.0 | 0.00 | 0.00 | 0.00 | 85 | 1017.4 |
| 20260831071758 | 55 | 326 | 0.0 | 0.0 | 0.00 | 0.00 | 0.00 | 84 | 1017.5 |
| 20260831071726 | 55 | 326 | 0.0 | 0.0 | 0.00 | 0.00 | 0.00 | 84 | 1017.5 |
| 20260831071233 | 55 | 326 | 0.0 | 0.0 | 0.00 | 0.00 | 0.00 | 84 | 1017.5 |
| 20260831070800 | 55 | 326 | 0.0 | 0.0 | 0.00 | 0.00 | 0.00 | 82 | 1017.6 |
| 20260831070729 | 55 | 326 | 0.0 | 0.0 | 0.00 | 0.00 | 0.00 | 82 | 1017.6 |
| 20260831070235 | 56 | 326 | 0.0 | 0.0 | 0.00 | 0.00 | 0.00 | 82 | 1017.7 |
| 20260831065722 | 56 | 326 | 0.0 | 0.0 | 0.00 | 0.00 | 0.00 | 82 | 1017.7 |
| 20260831065310 | 56 | 326 | 0.0 | 0.0 | 0.00 | 0.00 | 0.00 | 82 | 1017.7 |
| 20260831065238 | 56 | 326 | 0.0 | 0.0 | 0.00 | 0.00 | 0.00 | 82 | 1017.7 |
| 20260831064724 | 56 | 309 | 0.0 | 0.0 | 0.00 | 0.00 | 0.00 | 81 | 1017.9 |
| 20260831064235 | 57 | 309 | 0.0 | 0.0 | 0.00 | 0.00 | 0.00 | 81 | 1018.0 |
| 20260831063802 | 57 | 309 | 0.0 | 0.0 | 0.00 | 0.00 | 0.00 | 81 | 1018.0 |
| 20260831063238 | 57 | 309 | 0.0 | 0.0 | 0.00 | 0.00 | 0.00 | 80 | 1018.0 |
| 20260831062805 | 57 | 309 | 0.0 | 0.0 | 0.00 | 0.00 | 0.00 | 80 | 1018.0 |
| 20260831062221 | 57 | 309 | 0.0 | 0.0 | 0.00 | 0.00 | 0.00 | 80 | 1018.1 |
| 20260831061727 | 57 | 309 | 0.0 | 0.0 | 0.00 | 0.00 | 0.00 | 79 | 1018.1 |
| 20260831061234 | 58 | 309 | 0.0 | 0.0 | 0.00 | 0.00 | 0.00 | 79 | 1018.1 |
| 20260831060801 | 58 | 309 | 0.0 | 0.0 | 0.00 | 0.00 | 0.00 | 79 | 1018.1 |
| 20260831060730 | 58 | 309 | 0.0 | 0.0 | 0.00 | 0.00 | 0.00 | 79 | 1018.1 |
| 20260831060236 | 58 | 309 | 0.0 | 0.0 | 0.00 | 0.00 | 0.00 | 78 | 1018.2 |
| 20260831055803 | 58 | 309 | 0.0 | 0.0 | 0.00 | 0.00 | 0.00 | 78 | 1018.3 |
| 20260831055731 | 58 | 309 | 0.0 | 0.0 | 0.00 | 0.00 | 0.00 | 78 | 1018.3 |
| 20260831055239 | 58 | 309 | 0.0 | 0.0 | 0.00 | 0.00 | 0.00 | 79 | 1018.3 |
| 20260831054725 | 59 | 309 | 0.0 | 0.0 | 0.00 | 0.00 | 0.00 | 78 | 1018.4 |
| 20260831054232 | 59 | 309 | 0.0 | 0.0 | 0.00 | 0.00 | 0.00 | 78 | 1018.4 |
| 20260831053739 | 59 | 309 | 0.0 | 0.0 | 0.00 | 0.00 | 0.00 | 75 | 1018.4 |
| 20260831053230 | 59 | 309 | 0.0 | 0.0 | 0.00 | 0.00 | 0.00 | 75 | 1018.5 |
| 20260831052737 | 59 | 309 | 0.0 | 0.0 | 0.00 | 0.00 | 0.00 | 75 | 1018.6 |
| 20260831052307 | 59 | 309 | 0.0 | 0.0 | 0.00 | 0.00 | 0.00 | 75 | 1018.6 |
| 20260831051739 | 59 | 309 | 0.0 | 0.0 | 0.00 | 0.00 | 0.00 | 75 | 1018.6 |
| 20260831051306 | 59 | 309 | 0.0 | 0.0 | 0.00 | 0.00 | 0.00 | 75 | 1018.6 |
| 20260831050721 | 60 | 309 | 0.0 | 0.0 | 0.00 | 0.00 | 0.00 | 75 | 1018.6 |
| 20260831050228 | 60 | 309 | 0.0 | 0.0 | 0.00 | 0.00 | 0.00 | 75 | 1018.8 |
| 20260831045735 | 60 | 309 | 0.0 | 0.0 | 0.00 | 0.00 | 0.00 | 74 | 1018.7 |
| 20260831045306 | 60 | 309 | 0.0 | 0.0 | 0.00 | 0.00 | 0.00 | 73 | 1018.7 |
| 20260831044737 | 61 | 309 | 0.0 | 0.0 | 0.00 | 0.00 | 0.00 | 72 | 1018.8 |
| 20260831044225 | 61 | 309 | 0.0 | 0.0 | 0.00 | 0.00 | 0.00 | 72 | 1018.7 |
| 20260831043731 | 61 | 309 | 0.0 | 0.0 | 0.00 | 0.00 | 0.00 | 71 | 1018.8 |
| 20260831043238 | 61 | 309 | 0.0 | 0.0 | 0.00 | 0.00 | 0.00 | 71 | 1018.7 |
| 20260831042729 | 61 | 309 | 0.0 | 0.0 | 0.00 | 0.00 | 0.00 | 71 | 1018.7 |
| 20260831042236 | 62 | 309 | 0.0 | 0.0 | 0.00 | 0.00 | 0.00 | 71 | 1018.8 |
| 20260831041722 | 62 | 309 | 0.0 | 0.0 | 0.00 | 0.00 | 0.00 | 69 | 1018.6 |
| 20260831041310 | 62 | 309 | 0.0 | 0.0 | 0.00 | 0.00 | 0.00 | 68 | 1018.8 |
| 20260831040725 | 63 | 309 | 0.0 | 0.0 | 0.00 | 0.00 | 0.00 | 68 | 1018.8 |
| 20260831040232 | 63 | 309 | 0.0 | 0.0 | 0.00 | 0.00 | 0.00 | 67 | 1018.8 |
| 20260831035739 | 63 | 309 | 0.0 | 0.0 | 0.00 | 0.00 | 0.00 | 66 | 1018.8 |
| 20260831035227 | 63 | 304 | 0.0 | 0.0 | 0.00 | 0.00 | 0.00 | 65 | 1018.9 |
| 20260831034753 | 64 | 304 | 0.0 | 0.0 | 0.00 | 0.00 | 0.00 | 64 | 1018.9 |
| 20260831034721 | 64 | 304 | 0.0 | 0.0 | 0.00 | 0.00 | 0.00 | 64 | 1018.9 |
| 20260831034230 | 64 | 304 | 0.0 | 1.7 | 0.00 | 0.00 | 0.00 | 63 | 1018.8 |
| 20260831033756 | 64 | 302 | 0.0 | 1.7 | 0.00 | 0.00 | 0.00 | 63 | 1018.8 |
| 20260831033231 | 64 | 302 | 0.0 | 1.7 | 0.00 | 0.00 | 0.00 | 63 | 1018.8 |
| 20260831032737 | 64 | 292 | 0.0 | 1.7 | 0.00 | 0.00 | 0.00 | 62 | 1018.6 |
| 20260831032300 | 64 | 292 | 0.0 | 1.7 | 0.00 | 0.00 | 0.00 | 62 | 1018.6 |
| 20260831031754 | 65 | 311 | 0.0 | 0.0 | 0.00 | 0.00 | 0.00 | 62 | 1018.6 |
| 20260831031722 | 65 | 311 | 0.0 | 0.0 | 0.00 | 0.00 | 0.00 | 62 | 1018.6 |
| 20260831031309 | 65 | 311 | 0.0 | 0.9 | 0.00 | 0.00 | 0.00 | 62 | 1018.6 |
| 20260831030724 | 65 | 311 | 0.0 | 1.7 | 0.00 | 0.00 | 0.00 | 60 | 1018.6 |
| 20260831030235 | 65 | 304 | 0.9 | 1.7 | 0.00 | 0.00 | 0.00 | 60 | 1018.7 |
| 20260831025722 | 66 | 293 | 0.0 | 1.7 | 0.00 | 0.00 | 0.00 | 60 | 1018.6 |
| 20260831025230 | 66 | 292 | 0.9 | 1.7 | 0.00 | 0.00 | 0.00 | 59 | 1018.7 |
| 20260831024736 | 66 | 323 | 0.0 | 2.6 | 0.00 | 0.00 | 0.00 | 59 | 1018.7 |
| 20260831024223 | 67 | 333 | 0.0 | 4.3 | 0.00 | 0.00 | 0.00 | 59 | 1018.8 |
| 20260831023730 | 67 | 316 | 1.7 | 4.3 | 0.00 | 0.00 | 0.00 | 58 | 1018.9 |
| 20260831023257 | 67 | 317 | 0.9 | 3.5 | 0.00 | 0.00 | 0.00 | 58 | 1018.8 |
| 20260831022753 | 67 | 292 | 1.7 | 3.5 | 0.00 | 0.00 | 0.00 | 57 | 1018.8 |
| 20260831022309 | 68 | 313 | 0.9 | 2.6 | 0.00 | 0.00 | 0.00 | 57 | 1018.9 |
| 20260831022238 | 68 | 313 | 0.9 | 2.6 | 0.00 | 0.00 | 0.00 | 57 | 1018.9 |
| 20260831021723 | 68 | 349 | 0.9 | 3.5 | 0.00 | 0.00 | 0.00 | 56 | 1018.9 |
| 20260831021230 | 68 | 288 | 1.7 | 3.5 | 0.00 | 0.00 | 0.00 | 54 | 1018.8 |
| 20260831020737 | 69 | 294 | 1.7 | 3.5 | 0.00 | 0.00 | 0.00 | 53 | 1019.1 |
| 20260831020305 | 70 | 305 | 0.0 | 1.7 | 0.00 | 0.00 | 0.00 | 53 | 1019.0 |
| 20260831015720 | 70 | 324 | 0.0 | 3.5 | 0.00 | 0.00 | 0.00 | 52 | 1019.1 |
| 20260831015232 | 70 | 336 | 0.9 | 3.5 | 0.00 | 0.00 | 0.00 | 51 | 1019.0 |
| 20260831014738 | 71 | 304 | 0.0 | 1.7 | 0.00 | 0.00 | 0.00 | 51 | 1019.1 |
| 20260831014225 | 71 | 327 | 0.0 | 1.7 | 0.00 | 0.00 | 0.00 | 51 | 1019.2 |
| 20260831013732 | 70 | 264 | 0.9 | 1.7 | 0.00 | 0.00 | 0.00 | 50 | 1019.2 |
| 20260831013239 | 71 | 320 | 0.0 | 2.6 | 0.00 | 0.00 | 0.00 | 50 | 1019.3 |
| 20260831012806 | 71 | 265 | 1.7 | 2.6 | 0.00 | 0.00 | 0.00 | 49 | 1019.4 |
| 20260831012734 | 71 | 265 | 1.7 | 2.6 | 0.00 | 0.00 | 0.00 | 49 | 1019.4 |
| 20260831012222 | 71 | 316 | 0.0 | 1.7 | 0.00 | 0.00 | 0.00 | 50 | 1019.4 |
| 20260831011728 | 71 | 318 | 0.9 | 4.3 | 0.00 | 0.00 | 0.00 | 49 | 1019.3 |
| 20260831011235 | 71 | 306 | 1.7 | 4.3 | 0.00 | 0.00 | 0.00 | 49 | 1019.3 |
| 20260831010722 | 72 | 266 | 0.9 | 2.6 | 0.00 | 0.00 | 0.00 | 49 | 1019.4 |
| 20260831010310 | 72 | 334 | 0.9 | 2.6 | 0.00 | 0.00 | 0.00 | 49 | 1019.5 |